Time,TemperatureF,DewpointF,PressureIn,WindDirection,WindDirectionDegrees,WindSpeedMPH,WindSpeedGustMPH,Humidity,HourlyPrecipIn,Conditions,Clouds,dailyrainin,SolarRadiationWatts/m^2,SoftwareType,DateUTC
2013-05-17 00:01:00,70.0,19.0,-100.00,South,175,13.0,17.0,14,-99.99,,,-99.99,0.000000,,2013-05-17 06:01:00,
2013-05-17 00:11:00,70.0,20.0,-100.00,South,177,10.0,14.0,14,-99.99,,,-99.99,0.000000,,2013-05-17 06:11:00,
2013-05-17 00:21:00,69.0,19.0,-100.00,South,175,13.0,16.0,14,-99.99,,,-99.99,0.000000,,2013-05-17 06:21:00,
2013-05-17 00:32:00,68.0,21.0,-100.00,SSE,164,8.0,13.0,16,-99.99,,,-99.99,0.000000,,2013-05-17 06:32:00,
2013-05-17 00:42:00,67.0,20.0,-100.00,SSE,152,8.0,10.0,16,-99.99,,,-99.99,0.000000,,2013-05-17 06:42:00,
2013-05-17 00:51:00,66.0,20.0,-100.00,SE,142,8.0,9.0,17,-99.99,,,-99.99,0.000000,,2013-05-17 06:51:00,
2013-05-17 01:02:00,65.0,21.0,-100.00,South,175,4.0,7.0,18,-99.99,,,-99.99,0.010000,,2013-05-17 07:02:00,
2013-05-17 01:11:00,64.0,20.0,-100.00,SSE,152,5.0,5.0,18,-99.99,,,-99.99,0.040000,,2013-05-17 07:11:00,
2013-05-17 01:21:00,64.0,22.0,-100.00,South,181,4.0,5.0,19,-99.99,,,-99.99,0.020000,,2013-05-17 07:21:00,
2013-05-17 01:32:00,61.0,22.0,-100.00,WSW,252,3.0,5.0,21,-99.99,,,-99.99,0.100000,,2013-05-17 07:32:00,
2013-05-17 01:43:00,59.0,25.0,-100.00,NNW,341,10.0,10.0,26,-99.99,,,-99.99,0.060000,,2013-05-17 07:43:00,
2013-05-17 01:53:00,61.0,34.0,-100.00,North,353,8.0,9.0,36,-99.99,,,-99.99,0.060000,,2013-05-17 07:53:00,
2013-05-17 02:02:00,60.0,37.0,-100.00,NNE,16,8.0,11.0,42,-99.99,,,-99.99,0.100000,,2013-05-17 08:02:00,
2013-05-17 02:12:00,60.0,38.0,-100.00,NNE,18,11.0,12.0,44,-99.99,,,-99.99,0.090000,,2013-05-17 08:12:00,
2013-05-17 02:22:00,60.0,40.0,-100.00,NNE,28,11.0,12.0,46,-99.99,,,-99.99,0.050000,,2013-05-17 08:22:00,
2013-05-17 02:33:00,60.0,40.0,-100.00,North,10,14.0,15.0,47,-99.99,,,-99.99,0.050000,,2013-05-17 08:33:00,
2013-05-17 02:42:00,60.0,40.0,-100.00,NNE,16,13.0,16.0,48,-99.99,,,-99.99,0.060000,,2013-05-17 08:42:00,
2013-05-17 02:51:00,59.0,41.0,-100.00,NNW,338,12.0,13.0,51,-99.99,,,-99.99,0.090000,,2013-05-17 08:51:00,
2013-05-17 03:02:00,57.0,41.0,-100.00,NNW,338,10.0,11.0,54,-99.99,,,-99.99,0.100000,,2013-05-17 09:02:00,
2013-05-17 03:12:00,58.0,41.0,-100.00,North,359,6.0,9.0,53,-99.99,,,-99.99,0.100000,,2013-05-17 09:12:00,
2013-05-17 03:22:00,56.0,41.0,-100.00,NW,307,3.0,6.0,55,-99.99,,,-99.99,0.110000,,2013-05-17 09:22:00,
2013-05-17 03:33:00,55.0,41.0,-100.00,West,269,1.0,4.0,58,-99.99,,,-99.99,0.120000,,2013-05-17 09:33:00,
2013-05-17 03:42:00,55.0,41.0,-100.00,NNE,23,0.0,5.0,58,-99.99,,,-99.99,0.130000,,2013-05-17 09:42:00,
2013-05-17 03:53:00,55.0,41.0,-100.00,NW,322,2.0,2.0,58,-99.99,,,-99.99,0.060000,,2013-05-17 09:53:00,
2013-05-17 04:03:00,53.0,40.0,-100.00,WSW,239,2.0,3.0,61,-99.99,,,-99.99,0.020000,,2013-05-17 10:03:00,
2013-05-17 04:12:00,52.0,40.0,-100.00,WSW,258,2.0,3.0,64,-99.99,,,-99.99,0.010000,,2013-05-17 10:12:00,
2013-05-17 04:23:00,52.0,40.0,-100.00,NE,37,1.0,3.0,63,-99.99,,,-99.99,0.020000,,2013-05-17 10:23:00,
2013-05-17 04:32:00,52.0,40.0,-100.00,West,267,2.0,4.0,64,-99.99,,,-99.99,0.010000,,2013-05-17 10:32:00,
2013-05-17 04:42:00,51.0,40.0,-100.00,NNW,346,1.0,3.0,65,-99.99,,,-99.99,0.000000,,2013-05-17 10:42:00,
2013-05-17 04:53:00,51.0,41.0,-100.00,North,358,4.0,5.0,66,-99.99,,,-99.99,0.000000,,2013-05-17 10:53:00,
2013-05-17 05:02:00,50.0,40.0,-100.00,SSE,165,1.0,3.0,68,-99.99,,,-99.99,0.000000,,2013-05-17 11:02:00,
2013-05-17 05:12:00,49.0,39.0,-100.00,SSE,151,3.0,4.0,68,-99.99,,,-99.99,0.000000,,2013-05-17 11:12:00,
2013-05-17 05:22:00,49.0,39.0,-100.00,South,170,2.0,4.0,68,-99.99,,,-99.99,0.000000,,2013-05-17 11:22:00,
2013-05-17 05:33:00,48.0,38.0,-100.00,SE,128,4.0,4.0,69,-99.99,,,-99.99,0.000000,,2013-05-17 11:33:00,
2013-05-17 05:42:00,48.0,39.0,-100.00,SE,132,4.0,4.0,70,-99.99,,,-99.99,0.000000,,2013-05-17 11:42:00,
2013-05-17 05:52:00,49.0,39.0,-100.00,SSE,164,4.0,5.0,68,-99.99,,,-99.99,0.000000,,2013-05-17 11:52:00,
2013-05-17 06:02:00,48.0,38.0,-100.00,South,177,3.0,5.0,70,-99.99,,,-99.99,0.000000,,2013-05-17 12:02:00,
2013-05-17 06:12:00,46.0,37.0,-100.00,South,173,5.0,5.0,71,-99.99,,,-99.99,0.000000,,2013-05-17 12:12:00,
2013-05-17 06:23:00,45.0,38.0,-100.00,South,182,6.0,6.0,75,-99.99,,,-99.99,0.000000,,2013-05-17 12:23:00,
2013-05-17 06:32:00,45.0,38.0,-100.00,South,181,4.0,6.0,75,-99.99,,,-99.99,0.290000,,2013-05-17 12:32:00,
2013-05-17 06:42:00,45.0,38.0,-100.00,SSE,168,5.0,5.0,75,-99.99,,,-99.99,0.600000,,2013-05-17 12:42:00,
2013-05-17 06:53:00,45.0,38.0,-100.00,South,171,5.0,5.0,74,-99.99,,,-99.99,2.300000,,2013-05-17 12:53:00,
2013-05-17 07:03:00,46.0,38.0,-100.00,South,178,3.0,3.0,73,-99.99,,,-99.99,8.360000,,2013-05-17 13:03:00,
2013-05-17 07:12:00,46.0,38.0,-100.00,ESE,106,3.0,3.0,75,-99.99,,,-99.99,13.620000,,2013-05-17 13:12:00,
2013-05-17 07:23:00,47.0,39.0,-100.00,SSE,165,2.0,3.0,73,-99.99,,,-99.99,18.230000,,2013-05-17 13:23:00,
2013-05-17 07:33:00,47.0,39.0,-100.00,North,0,0.0,0.0,73,-99.99,,,-99.99,22.420000,,2013-05-17 13:33:00,
2013-05-17 07:42:00,47.0,39.0,-100.00,SSE,168,4.0,5.0,73,-99.99,,,-99.99,29.879999,,2013-05-17 13:42:00,
2013-05-17 07:52:00,49.0,40.0,-100.00,ESE,121,3.0,5.0,72,-99.99,,,-99.99,49.110001,,2013-05-17 13:52:00,
2013-05-17 08:01:00,50.0,40.0,-100.00,SW,232,3.0,5.0,69,-99.99,,,-99.99,50.500000,,2013-05-17 14:01:00,
2013-05-17 08:12:00,50.0,40.0,-100.00,SSW,197,1.0,3.0,68,-99.99,,,-99.99,97.400002,,2013-05-17 14:12:00,
2013-05-17 08:22:00,52.0,41.0,-100.00,NNE,31,0.0,2.0,65,-99.99,,,-99.99,170.699997,,2013-05-17 14:22:00,
2013-05-17 08:34:00,53.0,41.0,-100.00,SSE,168,1.0,2.0,63,-99.99,,,-99.99,171.399994,,2013-05-17 14:34:00,
2013-05-17 08:42:00,55.0,41.0,-100.00,SSE,158,2.0,3.0,59,-99.99,,,-99.99,226.000000,,2013-05-17 14:42:00,
2013-05-17 08:53:00,56.0,41.0,-100.00,SSW,209,2.0,5.0,56,-99.99,,,-99.99,376.399994,,2013-05-17 14:53:00,
2013-05-17 09:03:00,59.0,41.0,-100.00,South,176,2.0,4.0,50,-99.99,,,-99.99,435.100006,,2013-05-17 15:03:00,
2013-05-17 09:13:00,60.0,41.0,-100.00,WSW,245,0.0,1.0,48,-99.99,,,-99.99,276.000000,,2013-05-17 15:13:00,
2013-05-17 09:25:00,60.0,41.0,-100.00,West,276,2.0,3.0,50,-99.99,,,-99.99,178.399994,,2013-05-17 15:25:00,
2013-05-17 09:37:00,60.0,41.0,-100.00,WNW,285,3.0,4.0,50,-99.99,,,-99.99,210.600006,,2013-05-17 15:37:00,
2013-05-17 09:47:00,60.0,42.0,-100.00,WNW,295,3.0,3.0,51,-99.99,,,-99.99,238.100006,,2013-05-17 15:47:00,
2013-05-17 09:56:00,61.0,42.0,-100.00,North,8,1.0,3.0,48,-99.99,,,-99.99,297.700012,,2013-05-17 15:56:00,
2013-05-17 10:07:00,62.0,42.0,-100.00,NNW,332,3.0,4.0,48,-99.99,,,-99.99,334.200012,,2013-05-17 16:07:00,
2013-05-17 10:13:00,62.0,41.0,-100.00,North,0,6.0,7.0,45,-99.99,,,-99.99,500.399994,,2013-05-17 16:13:00,
2013-05-17 10:26:00,64.0,41.0,-100.00,WNW,291,3.0,7.0,42,-99.99,,,-99.99,519.000000,,2013-05-17 16:26:00,
2013-05-17 10:37:00,64.0,41.0,-100.00,North,7,7.0,9.0,43,-99.99,,,-99.99,475.299988,,2013-05-17 16:37:00,
2013-05-17 10:49:00,64.0,40.0,-100.00,NNW,329,7.0,9.0,40,-99.99,,,-99.99,362.299988,,2013-05-17 16:49:00,
2013-05-17 10:56:00,65.0,39.0,-100.00,NW,312,7.0,7.0,37,-99.99,,,-99.99,346.299988,,2013-05-17 16:56:00,
2013-05-17 11:07:00,66.0,38.0,-100.00,NNW,332,5.0,7.0,35,-99.99,,,-99.99,399.899994,,2013-05-17 17:07:00,
2013-05-17 11:18:00,66.0,39.0,-100.00,NW,320,6.0,9.0,35,-99.99,,,-99.99,461.700012,,2013-05-17 17:18:00,
2013-05-17 11:29:00,66.0,39.0,-100.00,NNW,346,6.0,11.0,37,-99.99,,,-99.99,337.700012,,2013-05-17 17:29:00,
2013-05-17 11:40:00,66.0,-99.9,-100.00,NNW,346,6.0,11.0,37,-99.99,,,-99.99,337.700012,,2013-05-17 17:40:00,
2013-05-17 11:48:00,66.0,38.0,-100.00,NNW,339,9.0,11.0,35,-99.99,,,-99.99,311.500000,,2013-05-17 17:48:00,
2013-05-17 12:00:00,67.0,37.0,-100.00,North,7,3.0,6.0,32,-99.99,,,-99.99,264.799988,,2013-05-17 18:00:00,
2013-05-17 12:08:00,68.0,36.0,-100.00,North,4,0.0,3.0,30,-99.99,,,-99.99,242.199997,,2013-05-17 18:08:00,
2013-05-17 12:20:00,67.0,33.0,-100.00,WNW,288,6.0,9.0,27,-99.99,,,-99.99,208.500000,,2013-05-17 18:20:00,
2013-05-17 12:30:00,68.0,27.0,-100.00,South,191,18.0,23.0,20,-99.99,,,-99.99,241.899994,,2013-05-17 18:30:00,
2013-05-17 12:40:00,68.0,28.0,-100.00,SSW,209,18.0,23.0,21,-99.99,,,-99.99,229.199997,,2013-05-17 18:40:00,
2013-05-17 12:50:00,-999.0,-99.9,-100.00,SSW,202,13.0,18.0,21,-99.99,,,-99.99,175.000000,,2013-05-17 18:50:00,
2013-05-17 13:00:00,68.0,27.0,-100.00,SW,226,15.0,20.0,21,-99.99,,,-99.99,199.899994,,2013-05-17 19:00:00,
2013-05-17 13:10:00,68.0,28.0,-100.00,SW,214,19.0,25.0,21,-99.99,,,-99.99,216.300003,,2013-05-17 19:10:00,
2013-05-17 13:20:00,67.0,27.0,-100.00,SW,218,21.0,26.0,22,-99.99,,,-99.99,182.899994,,2013-05-17 19:20:00,
2013-05-17 13:30:00,67.0,29.0,-100.00,SSW,212,24.0,29.0,24,-99.99,,,-99.99,170.300003,,2013-05-17 19:30:00,
2013-05-17 13:40:00,67.0,31.0,-100.00,SSW,199,23.0,27.0,26,-99.99,,,-99.99,171.100006,,2013-05-17 19:40:00,
2013-05-17 13:50:00,66.0,32.0,-100.00,SSW,211,27.0,32.0,28,-99.99,,,-99.99,169.100006,,2013-05-17 19:50:00,
2013-05-17 14:00:00,65.0,-99.9,-100.00,SSW,210,23.0,31.0,30,-99.99,,,-99.99,207.300003,,2013-05-17 20:00:00,
2013-05-17 14:09:00,66.0,32.0,-100.00,SSW,194,29.0,36.0,28,-99.99,,,-99.99,249.300003,,2013-05-17 20:09:00,
2013-05-17 14:20:00,66.0,32.0,-100.00,South,187,24.0,27.0,28,-99.99,,,-99.99,247.899994,,2013-05-17 20:20:00,
2013-05-17 14:30:00,64.0,33.0,-100.00,South,188,27.0,32.0,30,-99.99,,,-99.99,214.100006,,2013-05-17 20:30:00,
2013-05-17 14:40:00,65.0,33.0,-100.00,SSW,211,23.0,30.0,30,-99.99,,,-99.99,214.199997,,2013-05-17 20:40:00,
2013-05-17 14:49:00,64.0,33.0,-100.00,South,182,28.0,34.0,30,-99.99,,,-99.99,192.000000,,2013-05-17 20:49:00,
2013-05-17 14:58:00,65.0,33.0,-100.00,SSW,192,21.0,26.0,30,-99.99,,,-99.99,236.100006,,2013-05-17 20:58:00,
2013-05-17 15:07:00,65.0,32.0,-100.00,South,189,26.0,32.0,28,-99.99,,,-99.99,249.899994,,2013-05-17 21:07:00,
2013-05-17 15:16:00,66.0,31.0,-100.00,SSW,195,15.0,25.0,27,-99.99,,,-99.99,257.200012,,2013-05-17 21:16:00,
2013-05-17 15:26:00,67.0,32.0,-100.00,South,181,13.0,17.0,26,-99.99,,,-99.99,281.799988,,2013-05-17 21:26:00,
2013-05-17 15:39:00,67.0,30.0,-100.00,South,188,19.0,25.0,25,-99.99,,,-99.99,264.600006,,2013-05-17 21:39:00,
2013-05-17 15:49:00,67.0,30.0,-100.00,South,189,20.0,29.0,25,-99.99,,,-99.99,250.000000,,2013-05-17 21:49:00,
2013-05-17 15:57:00,66.0,31.0,-100.00,South,184,21.0,28.0,26,-99.99,,,-99.99,259.200012,,2013-05-17 21:57:00,
2013-05-17 16:06:00,67.0,31.0,-100.00,SSE,163,18.0,21.0,26,-99.99,,,-99.99,292.500000,,2013-05-17 22:06:00,
2013-05-17 16:16:00,67.0,32.0,-100.00,SSE,164,15.0,22.0,26,-99.99,,,-99.99,294.700012,,2013-05-17 22:16:00,
2013-05-17 16:28:00,67.0,31.0,-100.00,SSE,167,15.0,18.0,25,-99.99,,,-99.99,333.600006,,2013-05-17 22:28:00,
2013-05-17 16:47:00,68.0,30.0,-100.00,SSE,156,10.0,12.0,23,-99.99,,,-99.99,281.899994,,2013-05-17 22:47:00,
2013-05-17 16:54:00,68.0,31.0,-100.00,SSE,165,10.0,13.0,25,-99.99,,,-99.99,235.800003,,2013-05-17 22:54:00,
2013-05-17 17:04:00,68.0,29.0,-100.00,SSE,161,10.0,14.0,23,-99.99,,,-99.99,246.500000,,2013-05-17 23:04:00,
2013-05-17 17:13:00,68.0,30.0,-100.00,South,189,24.0,28.0,23,-99.99,,,-99.99,250.100006,,2013-05-17 23:13:00,
2013-05-17 17:23:00,68.0,30.0,-100.00,SSW,193,19.0,23.0,24,-99.99,,,-99.99,250.399994,,2013-05-17 23:23:00,
2013-05-17 17:37:00,68.0,31.0,-100.00,SSW,194,17.0,25.0,24,-99.99,,,-99.99,212.699997,,2013-05-17 23:37:00,
2013-05-17 17:47:00,68.0,30.0,-100.00,South,172,17.0,23.0,24,-99.99,,,-99.99,186.500000,,2013-05-17 23:47:00,
2013-05-17 17:54:00,68.0,31.0,-100.00,SSW,203,22.0,25.0,25,-99.99,,,-99.99,159.300003,,2013-05-17 23:54:00,
2013-05-17 18:02:00,67.0,31.0,-100.00,SSW,206,17.0,20.0,25,-99.99,,,-99.99,146.699997,,2013-05-18 00:02:00,
2013-05-17 18:14:00,67.0,31.0,-100.00,South,178,16.0,18.0,25,-99.99,,,-99.99,142.500000,,2013-05-18 00:14:00,
2013-05-17 18:21:00,67.0,31.0,-100.00,SSW,208,18.0,19.0,26,-99.99,,,-99.99,123.199997,,2013-05-18 00:21:00,
2013-05-17 18:33:00,67.0,31.0,-100.00,SSE,147,9.0,11.0,25,-99.99,,,-99.99,107.400002,,2013-05-18 00:33:00,
2013-05-17 18:44:00,67.0,31.0,-100.00,SSE,149,13.0,15.0,26,-99.99,,,-99.99,94.199997,,2013-05-18 00:44:00,
2013-05-17 18:54:00,64.0,35.0,-100.00,SE,129,15.0,19.0,33,-99.99,,,-99.99,89.300003,,2013-05-18 00:54:00,
2013-05-17 19:02:00,63.0,38.0,-100.00,ESE,118,14.0,23.0,39,-99.99,,,-99.99,107.900002,,2013-05-18 01:02:00,
2013-05-17 19:13:00,63.0,38.0,-100.00,ESE,107,22.0,28.0,40,-99.99,,,-99.99,148.899994,,2013-05-18 01:13:00,
2013-05-17 19:24:00,62.0,39.0,-100.00,ESE,107,19.0,27.0,41,-99.99,,,-99.99,144.300003,,2013-05-18 01:24:00,
2013-05-17 19:31:00,62.0,40.0,-100.00,ESE,105,20.0,29.0,43,-99.99,,,-99.99,153.800003,,2013-05-18 01:31:00,
2013-05-17 19:42:00,62.0,41.0,-100.00,ESE,108,23.0,27.0,45,-99.99,,,-99.99,203.399994,,2013-05-18 01:42:00,
2013-05-17 19:52:00,61.0,40.0,-100.00,ESE,106,19.0,23.0,46,-99.99,,,-99.99,95.500000,,2013-05-18 01:52:00,
2013-05-17 20:02:00,61.0,41.0,-100.00,East,101,17.0,21.0,48,-99.99,,,-99.99,71.110001,,2013-05-18 02:02:00,
2013-05-17 20:11:00,61.0,42.0,-100.00,East,101,15.0,20.0,49,-99.99,,,-99.99,55.380001,,2013-05-18 02:11:00,
2013-05-17 20:22:00,60.0,42.0,-100.00,ESE,104,19.0,21.0,50,-99.99,,,-99.99,31.400000,,2013-05-18 02:22:00,
2013-05-17 20:31:00,60.0,42.0,-100.00,ESE,102,15.0,20.0,51,-99.99,,,-99.99,14.580000,,2013-05-18 02:31:00,
2013-05-17 20:42:00,60.0,42.0,-100.00,ESE,102,17.0,20.0,51,-99.99,,,-99.99,7.780000,,2013-05-18 02:42:00,
2013-05-17 20:53:00,60.0,41.0,-100.00,South,174,7.0,16.0,49,-99.99,,,-99.99,3.210000,,2013-05-18 02:53:00,
2013-05-17 21:02:00,60.0,40.0,-100.00,NW,313,14.0,18.0,46,-99.99,,,-99.99,2.200000,,2013-05-18 03:02:00,
2013-05-17 21:12:00,60.0,40.0,-100.00,NNW,342,9.0,14.0,46,-99.99,,,-99.99,0.860000,,2013-05-18 03:12:00,
2013-05-17 21:22:00,60.0,40.0,-100.00,NNW,346,11.0,15.0,47,-99.99,,,-99.99,0.200000,,2013-05-18 03:22:00,
2013-05-17 21:32:00,60.0,41.0,-100.00,NW,316,8.0,10.0,50,-99.99,,,-99.99,0.090000,,2013-05-18 03:32:00,
2013-05-17 21:43:00,59.0,41.0,-100.00,NNW,343,11.0,16.0,51,-99.99,,,-99.99,0.080000,,2013-05-18 03:43:00,
2013-05-17 21:53:00,59.0,41.0,-100.00,NW,312,9.0,12.0,52,-99.99,,,-99.99,0.050000,,2013-05-18 03:53:00,
2013-05-17 22:02:00,58.0,41.0,-100.00,NW,321,5.0,9.0,51,-99.99,,,-99.99,0.050000,,2013-05-18 04:02:00,
2013-05-17 22:12:00,58.0,41.0,-100.00,NW,319,8.0,12.0,53,-99.99,,,-99.99,0.030000,,2013-05-18 04:12:00,
2013-05-17 22:22:00,57.0,43.0,-100.00,North,355,6.0,13.0,58,-99.99,,,-99.99,0.050000,,2013-05-18 04:22:00,
2013-05-17 22:32:00,55.0,43.0,-100.00,West,276,8.0,12.0,62,-99.99,,,-99.99,0.150000,,2013-05-18 04:32:00,
2013-05-17 22:42:00,55.0,43.0,-100.00,West,276,8.0,12.0,62,-99.99,,,-99.99,0.150000,,2013-05-18 04:42:00,
2013-05-17 22:52:00,54.0,43.0,-100.00,West,265,11.0,16.0,66,-99.99,,,-99.99,0.100000,,2013-05-18 04:52:00,
2013-05-17 23:02:00,54.0,42.0,-100.00,West,279,9.0,15.0,65,-99.99,,,-99.99,0.100000,,2013-05-18 05:02:00,
2013-05-17 23:12:00,54.0,41.0,-100.00,West,272,12.0,14.0,62,-99.99,,,-99.99,0.080000,,2013-05-18 05:12:00,
2013-05-17 23:22:00,54.0,42.0,-100.00,WNW,295,8.0,12.0,63,-99.99,,,-99.99,0.050000,,2013-05-18 05:22:00,
2013-05-17 23:31:00,54.0,42.0,-100.00,WNW,291,8.0,11.0,65,-99.99,,,-99.99,0.060000,,2013-05-18 05:31:00,
2013-05-17 23:41:00,53.0,43.0,-100.00,NW,305,6.0,10.0,66,-99.99,,,-99.99,0.070000,,2013-05-18 05:41:00,
2013-05-17 23:51:00,53.0,42.0,-100.00,WNW,302,7.0,9.0,66,-99.99,,,-99.99,0.090000,,2013-05-18 05:51:00,